Regional Weather Roundup
Issued by NWS

Home | Current Version | Previous Version | Graphics & Text | Print | Product List | Glossary On
Versions: 1 2 3 4 5 6 7 8 9 10 11 12 13 14 15 16 17 18 19 20 21 22 23 24 25 26 27 28 29 30 31 32 33 34 35 36 37 38 39 40 41 42 43 44 45 46 47 48 49 50
000
ASUS43 KMKX 010811
RWRWI

WISCONSIN REGIONAL WEATHER ROUNDUP
NATIONAL WEATHER SERVICE MILWAUKEE/SULLIVAN WI
300 AM CDT WED JUL 01 2015

NOTE: "FAIR" INDICATES FEW OR NO CLOUDS BELOW 12,000 FEET WITH NO
SIGNIFICANT WEATHER AND/OR OBSTRUCTIONS TO VISIBILITY.

WIZ001-002-006>008-014>016-023>028-010900-
NORTHWEST WISCONSIN

CITY           SKY/WX    TMP DP  RH WIND       PRES   REMARKS
SUPERIOR ARPT  CLEAR     46  46 100 CALM      29.99S FOG
ASHLAND        CLEAR     41  41 100 SW3       30.00S
HAYWARD        PTCLDY    44  42  93 N5        30.00S
SIREN          CLEAR     48  46  94 CALM      29.98F
CUMBERLAND     PTCLDY    52  46  82 CALM      29.98F
RICE LAKE      PTCLDY    51  47  88 CALM      30.00S
CHETEK         PTCLDY    50  48  92 CALM      29.99S
LADYSMITH      CLEAR     47  44  88 NE5       30.00F
EAU CLAIRE     PTCLDY    49  47  93 E3        29.97S
MENOMONIE      PTCLDY    53  48  83 CALM      29.98S
NEW RICHMOND   PTCLDY    53  52  97 CALM      29.98F
OSCEOLA        PTCLDY    55  55  99 CALM      30.01S
$$

WIZ003>005-009-010-017-018-010900-
NORTH CENTRAL WISCONSIN

CITY           SKY/WX    TMP DP  RH WIND       PRES   REMARKS
MANITOWISH WTR CLEAR     37  37 100 CALM      29.99S FOG
ARBOR VITAE    CLEAR     42  41  94 N3        29.98F
WOODRUFF       CLEAR     42  41  94 N3        29.98F
RHINELANDER    CLEAR     43  41  93 N3        29.99S
EAGLE RIVER    CLEAR     41  41 100 CALM      29.99R
LAND O LAKES   CLEAR     40  40 100 CALM      30.00S
PHILLIPS       CLEAR     40  40 100 CALM      29.99S
TOMAHAWK       CLEAR     36  35  96 CALM      29.99S
MEDFORD        CLEAR     43  42  97 CALM      29.98S
MERRILL        FOG       39  39 100 CALM      29.98F VSB 1
$$

WIZ029-030-035-036-043>047-010900-
CENTRAL WISCONSIN

CITY           SKY/WX    TMP DP  RH WIND       PRES   REMARKS
WAUSAU         CLEAR     48  46  93 N5        29.96F
MOSINEE        CLEAR     48  46  93 N6        29.98S
MARSHFIELD     CLEAR     50  44  80 NE3       29.97S
STEVENS POINT  CLEAR     44  43  96 CALM      29.97S
WAUPACA        CLEAR     49  47  92 NW3       29.96S
WAUTOMA        CLEAR     49  48  96 CALM      29.97R
WISC RAPIDS    CLEAR     51  46  83 NE3       29.98R
CAMP DOUGLAS   CLEAR     45  45 100 NW2       29.96S FOG
$$

WIZ011>013-019>022-031-037>040-048>050-010900-
NORTHEAST WISCONSIN

CITY           SKY/WX    TMP DP  RH WIND       PRES   REMARKS
ANTIGO         CLEAR     42  42  99 CALM      29.97S
SHAWANO        CLEAR     50  45  83 NW5       29.95R
OCONTO         PTCLDY    48  46  91 N5        29.93R
STURGEON BAY   CLOUDY    54  45  71 N12       29.94R
GREEN BAY      MOCLDY    51  47  86 NW6       29.94R
MANITOWOC      CLEAR     50  48  93 MISG      29.93S
APPLETON       PTCLDY    50  43  76 NW7       29.95S
CLINTONVILLE   CLEAR     48  43  81 NW5       29.95S
OSHKOSH        PTCLDY    52  44  74 N6        29.94S
$$

WIZ032>034-041-042-053>061-010900-
SOUTHWEST WISCONSIN

CITY           SKY/WX    TMP DP  RH WIND       PRES   REMARKS
LA CROSSE      CLEAR     58  50  75 NE5       29.96R
SPARTA         CLEAR     46  45  97 CALM      29.98R
VIROQUA        CLEAR     53  51  94 NE5       29.97S
BOSCOBEL       FOG       52  50  93 CALM      29.96R VSB 3/4
PRAIRIE DU CHI CLEAR     56  54  93 CALM      29.96R
PLATTEVILLE    CLEAR     56  54  92 N3        29.95R
$$

WIZ056-057-062-063-064-067-068-010900-
SOUTH CENTRAL WISCONSIN

CITY           SKY/WX    TMP DP  RH WIND       PRES   REMARKS
REEDSBURG      CLOUDY    57  53  86 NE5       29.95R
BARABOO/DELLS  CLOUDY    56  48  75 NE9       29.96R
LONE ROCK      CLOUDY    56  53  90 NW3       29.96R
MINERAL POINT  CLEAR     55  54  94 N6        29.95R
MADISON        CLOUDY    61  57  87 CALM      29.93R
MIDDLETON      CLOUDY    61  58  91 N7        29.94R
WATERTOWN      CLOUDY    56  56 100 CALM      29.93S
MONROE         CLOUDY    59  57  94 E3        29.94R
JANESVILLE     CLOUDY    59  55  88 E3        29.94R
$$

WIZ051-052-058>065-066-070>072-010900-
SOUTHEAST WISCONSIN

CITY           SKY/WX    TMP DP  RH WIND       PRES   REMARKS
MILWAUKEE      MOCLDY    53  49  86 CALM      29.94R
WAUKESHA       MOCLDY    50  48  93 CALM      29.95R
MILWAUKEE/TIMM CLOUDY    52  48  87 W3        29.95R
RACINE         MOCLDY    53  49  86 NE6       29.95R
BURLINGTON     CLOUDY    51  50  95 CALM      29.94R
KENOSHA        CLEAR     52  49  89 CALM      29.94R
FOND DU LAC    PTCLDY    53  47  79 NW8       29.94S
SHEBOYGAN      CLEAR     51  47  86 NW6       29.93S
WEST BEND      PTCLDY    52  48  87 CALM      29.94R
JUNEAU         CLOUDY    56  50  81 N6        29.95S
$$

LSZ147-162-010900-
LAKE SUPERIOR

STATION/POSITION TIME  TEMP    WIND        PRES    WAVE
                       AIR SEA DIR/SP/G            HT/PER
                 (UTC) (F)     (DEG/KT/KT) (MB)    (FT/S)
W MID LAKE BUOY  0750   40 38  140/  4/  4 1016.6R   1/ 5
DEVILS ISLAND    0800   54      50/  5/  6 1016.1F
SAXON HARBOR     0740   44        CALM     1015.6S
$$

LMZ867-665-643>646-010900-
LAKE MICHIGAN

STATION/POSITION TIME  TEMP    WIND        PRES    WAVE
                       AIR SEA DIR/SP/G            HT/PER
                 (UTC) (F)     (DEG/KT/KT) (MB)    (FT/S)
CHAMBERS ISLAND  0700   53     330/ 10/ 13 1013.5S
N MID LAKE BUOY  0750   45 41  330/  8/ 10 1012.2F   2/ 4
NORTHPORT PIER   0700   53     340/ 14/ 17 1013.2S
SISTER BAY       0714   52     360/ 13/ 16   N/A
ALGOMA LAKESHORE 0710          320/  7/ 10   N/A
KEWAUNEE LAKESHO 0700   55     340/  7/ 10 1012.4F
SHEBOYGAN LAKESH 0800   54     310/  9/ 10 1013.7R
PORT WASHINGTON  0740   54     320/  2/  5 1014.2S
ATWATER BUOY     0800   55     350/  4/  6 1014.9R
MILWAUKEE LAKESH 0700   54      30/  6/  7   N/A
KENOSHA   LAKESH 0800   56      30/ 11/ 13 1013.5R
$$

TC  - TEMPERATURE IN CELSIUS
VSB - VISIBILITY IN STATUTE MILES
WCI - WIND CHILL INDEX
HX  - HEAT INDEX



USA.gov is the U.S. government's official web portal to all federal, state and local government web resources and services.